Location: Recife
(8.0585°S, 34.8848°W)
Time: 07:22:08
(UTC-03:00)

Courier 1B - Pass Details

Date: 15 April 2026
Orbit: 962 x 1209 km, 28.3° (Epoch: 13 May)

Event Time Altitude Azimuth Distance (km) Brightness Sun altitude
Rises 05:18:50 0° 298° (WNW) 3,974 10.2 -1.6°
Reaches altitude 10° 05:21:34 10° 297° (WNW) 3,046 9.6 -0.9°
Maximum altitude 05:29:13 84° 209° (SSW) 1,200 8.1 1.0°
Drops below altitude 10° 05:37:07 10° 121° (ESE) 3,147 11.0 2.9°
Sets 05:40:00 0° 120° (ESE) 4,112 11.6 3.6°
